STARLINK-1713, 46360

Orbit data source: Space-Track

STARLINK-1713, 46360 is a payload satellite owned by SpaceX/Seattle (US) in LEO that was launched on Thu, 03 Sep 2020 UTC via an FALCON 9 launch vehicle from the Air Force Eastern Test Range (AFETR). Payload-class satellites include a variety of spacecraft equipped with specific instruments for various scientific and technological missions. These include communications satellites like Starlink; space stations such as the ISS; scientific satellites like the Hubble; Earth observation satellites from companies like Planet Labs, Umbra, and HawkEye 360; GPS; miniature CubeSats for education and research; and military/defense satellites.

Loading next visibility...
Identifier
46360, 2020-062AM
Orbit
LEO
Last TLE update
7 hours ago
Origin
Manufacturer
SpaceX/Seattle
Mission
Partially operational Commercial Communications
Bus & Motor
STARLINK, Unknown motor
Mass
260 kg wet, ~248 kg dry
Launch date (UTC)
2020-09-03 (5 years ago)
Launch vehicle
FALCON 9
Launch site
Air Force Eastern Test Range (AFETR)
Object type
Payload
Rocket body
Debris
Shape & HBR
Box + 1 Pan, 8.86 m
Radar Cross Section
13.562 m², Large (>1 m²)

Expand to show TLE details & history

TLE from 7 hours ago
0 STARLINK-1713
1 46360U 20062AM  25128.91668981  .00126236  00000-0  31146-2 0  9992
2 46360  53.0516 256.1515 0000904 357.0670 168.6609 15.39610783  5797
Epoch: 2025-05-08T22:00Z
Definitive object data (Epoch: 2025-05-08T22:00:01.999Z)
Latitude
11.35213°
Longitude
-129.47373°
Altitude
447.992 km
Speed
7.645 km/s
True Right ascension
04h 30m 03s
True Declination
11° 16' 59"
Sunlit
Object was in daylight at TLE epoch
Visualization TLE readout
Latitude
52.98409°
Longitude
154.93378°
Altitude
453.58 km
Speed
7.647 km/s
Apparent Right ascension
00h 38m 22s
Apparent Declination
8° 55' 38"
Sunlit
Object is in daylight
Visualization observer readout
Local Sidereal Time
13:37:33
Azimuth
19.018° NNE
Elevation
-39.272°
Doppler factor
1
Orbital elements
Apogee altitude
448.151 km
Perigee altitude
446.917 km
Semi-major axis
6,825.671 km
Eccentricity
0.0000904
Inclination
53.0516°
RAAN
256.1515°
Arg. of periapsis
357.067°
True anomaly
168.66294°
Mean anomaly
168.6609°
Eccentric anomaly
168.66192°
Mean motion
3.8488 °/min
BSTAR
0.0031146
Orbital period
93.54 mins
Loading maneuver chart data...
Loading SW <> Apogee altitude chart data...
Loading historical data...
Loading historical data...
Loading historical data...
Loading historical data...
Loading historical data...
Loading historical data...
Loading historical data...

STARLINK-1713 Visibility forecast

Observer location: undefined°, undefined°

Span
Click to sort rows by Start time (UTC) header in descending order
Start Az.
Max El. time (UTC)
Max El. Az.
Max El.
End time (UTC)
End Az.
5 mins2025-05-09 11:30:52.391Z244.668° WSW2025-05-09 11:32:52.391Z356.229° N41.958°2025-05-09 11:35:52.391Z45.483° ENE
5 mins2025-05-09 18:02:52.391Z308.246° NW2025-05-09 18:04:52.391Z290.517° WNW44.194°2025-05-09 18:07:52.391Z132.911° SE
|